[TLELIST] Archives

 

[TLELIST] Current TLEs

May 21st 2023 PDT

HST 1 20580U 90037B 23140.30759344 .00003792 00000-0 19860-3 0 9997 2 20580 28.4691 93.4788 0002627 78.7140 47.1813 15.13063025617239 ISS (ZARYA) 1 25544U 98067A 23141.39452174 .00014421 00000-0 25972-3 0 9996 2 25544 51.6405 101.3371 0005262 5.0978 139.3556 15.50044293397636 CXO 1 25867U 99040B 23141.51325783 .00000497 00000-0 00000+0 0 9994 2 25867 37.8438 200.3191 9053383 259.5234 359.7154 0.37810086 24238 ...Continue Reading

[TLELIST] Current TLEs

May 21st 2023 PDT

HST 1 20580U 90037B 23140.30759344 .00003792 00000-0 19860-3 0 9997 2 20580 28.4691 93.4788 0002627 78.7140 47.1813 15.13063025617239 ISS (ZARYA) 1 25544U 98067A 23141.39452174 .00014421 00000-0 25972-3 0 9996 2 25544 51.6405 101.3371 0005262 5.0978 139.3556 15.50044293397636 CXO 1 25867U 99040B 23141.51325783 .00000497 00000-0 00000+0 0 9994 2 25867 37.8438 200.3191 9053383 259.5234 359.7154 0.37810086 24238 ...Continue Reading

[TLELIST] Current TLEs

May 20th 2023 PDT

HST 1 20580U 90037B 23139.96385722 .00003143 00000-0 16287-3 0 9992 2 20580 28.4690 95.7652 0002609 75.9338 333.8984 15.13058587617186 ISS (ZARYA) 1 25544U 98067A 23140.36652419 .00013744 00000-0 24820-3 0 9994 2 25544 51.6403 106.4318 0005209 1.9633 162.3652 15.50012770397475 CXO 1 25867U 99040B 23141.51325783 .00000497 00000-0 00000+0 0 9994 2 25867 37.8438 200.3191 9053383 259.5234 359.7154 0.37810086 24238 ...Continue Reading

[TLELIST] Current TLEs

May 19th 2023 PDT

HST 1 20580U 90037B 23139.23447998 .00003083 00000-0 15956-3 0 9991 2 20580 28.4689 100.6171 0002597 68.0548 320.9566 15.13054061617331 ISS (ZARYA) 1 25544U 98067A 23139.38731668 .00045234 00000-0 79559-3 0 9996 2 25544 51.6398 111.2823 0005007 354.8410 101.9150 15.50006007397324 CXO 1 25867U 99040B 23141.51222905 .00000497 00000-0 00000-0 0 9997 2 25867 37.8467 200.3305 9053398 259.5125 359.5762 0.37810855 13079 ...Continue Reading

[TLELIST] Current TLEs

May 19th 2023 PDT

HST 1 20580U 90037B 23139.23447998 .00003083 00000-0 15956-3 0 9991 2 20580 28.4689 100.6171 0002597 68.0548 320.9566 15.13054061617331 ISS (ZARYA) 1 25544U 98067A 23139.38731668 .00045234 00000-0 79559-3 0 9996 2 25544 51.6398 111.2823 0005007 354.8410 101.9150 15.50006007397324 CXO 1 25867U 99040B 23141.51222905 .00000497 00000-0 00000-0 0 9997 2 25867 37.8467 200.3305 9053398 259.5125 359.5762 0.37810855 13079 ...Continue Reading

[TLELIST] Current TLEs

May 18th 2023 PDT

HST 1 20580U 90037B 23138.12375038 .00003271 00000-0 16995-3 0 9996 2 20580 28.4686 108.0055 0002571 57.0652 29.7892 15.13047566617166 ISS (ZARYA) 1 25544U 98067A 23138.36523545 .00011315 00000-0 20377-3 0 9993 2 25544 51.6402 116.3446 0006653 0.6580 148.8050 15.50291838397168 CXO 1 25867U 99040B 23138.86991982 .00000447 00000-0 00000-0 0 9994 2 25867 37.8749 200.6888 9051795 259.2103 359.8911 0.37811130 13079 ...Continue Reading

[TLELIST] Current TLEs

May 18th 2023 PDT

HST 1 20580U 90037B 23138.12375038 .00003271 00000-0 16995-3 0 9996 2 20580 28.4686 108.0055 0002571 57.0652 29.7892 15.13047566617166 ISS (ZARYA) 1 25544U 98067A 23138.36523545 .00011315 00000-0 20377-3 0 9993 2 25544 51.6402 116.3446 0006653 0.6580 148.8050 15.50291838397168 CXO 1 25867U 99040B 23138.86991982 .00000447 00000-0 00000-0 0 9994 2 25867 37.8749 200.6888 9051795 259.2103 359.8911 0.37811130 13079 ...Continue Reading

[TLELIST] Current TLEs

May 17th 2023 PDT

HST 1 20580U 90037B 23136.68688774 .00003577 00000-0 18691-3 0 9993 2 20580 28.4684 117.5629 0002535 42.4358 122.3271 15.13038839616687 ISS (ZARYA) 1 25544U 98067A 23137.39941361 .00010222 00000-0 18505-3 0 9991 2 25544 51.6402 121.1337 0006471 356.7928 158.8444 15.50266645397010 CXO 1 25867U 99040B 23138.86991982 .00000447 00000-0 00000-0 0 9994 2 25867 37.8749 200.6888 9051795 259.2103 359.8911 0.37811130 13079 ...Continue Reading

[TLELIST] Current TLEs

May 16th 2023 PDT

HST 1 20580U 90037B 23135.69777759 .00003783 00000-0 19827-3 0 9996 2 20580 28.4684 124.1423 0002492 32.2433 134.1930 15.13031889616531 ISS (ZARYA) 1 25544U 98067A 23136.42718310 .00012950 00000-0 23236-3 0 9997 2 25544 51.6405 125.9506 0006478 354.0426 132.0700 15.50251029396865 CXO 1 25867U 99040B 23136.22730015 .00000537 00000-0 00000-0 0 9990 2 25867 37.9070 201.0686 9048472 258.8950 0.1468 0.37811144 13068 ...Continue Reading

[TLELIST] Current TLEs

May 15th 2023 PDT

HST 1 20580U 90037B 23135.29378259 .00003928 00000-0 20629-3 0 9997 2 20580 28.4684 126.8297 0002472 28.2655 93.2702 15.13029165616736 ISS (ZARYA) 1 25544U 98067A 23135.39925984 .00013222 00000-0 23727-3 0 9997 2 25544 51.6403 131.0463 0006540 350.4210 155.2131 15.50224750396703 CXO 1 25867U 99040B 23136.22730015 .00000537 00000-0 00000-0 0 9990 2 25867 37.9070 201.0686 9048472 258.8950 0.1468 0.37811144 13068 ...Continue Reading
  • This mailing list is a public mailing list - anyone may join or leave, at any time.
  • This mailing list is announce-only.

International Space Station (ISS) / Hubble Space Telescope (HST) / Chandra X-Ray Observatory Orbital Data via EMAIL

Privacy Policy:

Private list